Погода в Куклине

Россия / Новгородская область     58°03′40″N   30°14′22″E
темп.,
°C
ветер,
м/с
пор.,
м/с
влажн.,
%
обл.,
%
осадки,
мм/ч
давл.,
гПа
погр.,
м
16 мая, вс
вс1600:00+11зюз229698 0.0 100436
03:00+10зюз369846 0.0 1005124
06:00+10зюз389941 0.0 1006237
09:00+15з368647 0.0 1007559
12:00+16з468290 0.4 1009669
15:00+18з347171 0.7 10101129
18:00+18зюз12635 0.5 1010930
21:00+14вюв11795 0.5 101111
17 мая, пн
пн1700:00+12вюв23885 0.0 101141
03:00+11вюв37965 0.0 1012124
06:00+11юв389185 0.0 1012184
09:00+17юв4773100 0.0 1011408
12:00+21юв4760100 0.0 10111465
15:00+22ююв3761100 0.1 10101408
18:00+20ссв1173100 0.2 100812
21:00+17в31188100 0.6 1006262
18 мая, вт
вт1800:00+15в41297100 2.0 1005360
03:00+15вюв4129778 2.2 1003362
06:00+16вюв41296100 0.0 1002420
09:00+19юв51188100 0.2 1002818
12:00+20ю51179100 0.1 10031186
15:00+21ю5107781 0.9 10031069
18:00+20ююз4980100 0.4 1002659
21:00+17ююв3795100 2.9 1004195
19 мая, ср
ср1900:00+15ююв2598100 2.7 1004144
03:00+15юв1297100 3.3 100355
06:00+15юв1297100 0.1 100382
09:00+17ю2389100 0.3 1004537
12:00+17юз238977 2.6 1005488
15:00+16сз3393100 4.4 1005311
18:00+17ссз239245 0.7 1004346
21:00+15ссз2596100 0.8 1004194
20 мая, чт
чт2000:00+13ссз2599100 0.2 1004129
03:00+11с119989 0.2 100427
06:00+13в2397100 0.0 1003248
09:00+16ююв3690100 0.1 1003551
12:00+18ююв3575100 0.3 1002943
15:00+18ююз3477100 2.1 1002791
18:00+16зюз3587100 1.0 1000543
21:00+12зюз4796100 1.3 1000398